Regional Weather Roundup
Issued by NWS Upton, NY

Current Version | Previous Version | Graphics & Text | Print | Product List | Glossary Off
Versions: 1 2 3 4 5 6 7 8 9 10 11 12 13 14 15 16 17 18 19 20 21 22 23 24 25 26 27 28 29 30 31 32 33 34 35 36 37 38 39 40 41 42 43 44 45 46 47 48 49 50

834
ASUS41 KOKX 211108
RWROKX

REGIONAL WEATHER ROUNDUP
NATIONAL WEATHER SERVICE NEW YORK NY
700 AM EDT MON AUG 21 2017

NOTE: "FAIR" INDICATES FEW OR NO CLOUDS BELOW 12,000 FEET WITH NO
SIGNIFICANT WEATHER AND/OR OBSTRUCTIONS TO VISIBILITY.

NYZ071-072-176-178-NJZ106-104-211200-
NEW YORK CITY METRO AREA

CITY           SKY/WX    TMP DP  RH WIND       PRES   REMARKS
Central Park   CLEAR     73  62  68 W3        30.22R
Bronx Bot Gard   N/A    N/A N/A N/A E2        30.22R
LaGuardia APRT PTCLDY    75  64  68 CALM      30.18R
Kennedy INTL   MOCLDY    72  68  87 SW7       30.20R
Breezy Point     N/A     70 N/A N/A W5          N/A
Newark/Liberty PTCLDY    70  64  81 SW5       30.20R
Teterboro      CLEAR     73  64  73 CALM      30.19R
$$

NYZ177-179-078>081-211200-
LONG ISLAND NEW YORK

CITY           SKY/WX    TMP DP  RH WIND       PRES   REMARKS
Jones Beach      N/A     70 N/A N/A W5          N/A
Matinecock PT    N/A     72 N/A N/A SW5         N/A
Farmingdale    CLEAR     68  62  81 NW3       30.19R
MacArthur/ISP  PTCLDY    67  63  87 CALM      30.19R
Shirley        CLEAR     64  62  93 CALM      30.20R
Mt Sinai Harb    N/A    N/A N/A N/A MISG        N/A
Westhampton    CLEAR     59  56  89 CALM      30.21R
East Hampton   FAIR      59  58  94 CALM      30.19R
Montauk          N/A     68  67  96 S3        30.20R
$$

NYZ052-065-067-211200-
HUDSON VALLEY

CITY           SKY/WX    TMP DP  RH WIND       PRES   REMARKS
White Plains   CLEAR     67  64  90 NW3       30.19S
Larchmont Harb   N/A     70 N/A N/A W2          N/A
Croton On Huds   N/A     64 N/A N/A NE1         N/A
Newburgh       MOCLDY    63  63 100 W7        30.21R
Montgomery     CLEAR     61  60  97 CALM      30.20R FOG
Poughkeepsie   CLEAR     61  59  93 CALM      30.18S
Albany         PTCLDY    61  59  93 CALM      30.18R
$$

NJZ001-105-106-008-010-013-015-019>022-104-211200-
NEW JERSEY

CITY           SKY/WX    TMP DP  RH WIND       PRES   REMARKS
Newark/Liberty PTCLDY    70  64  81 SW5       30.20R
Teterboro      CLEAR     73  64  73 CALM      30.19R
Caldwell       CLEAR     64  63  96 CALM      30.21R
Somerville     CLEAR     61  60  97 CALM      30.20R
Linden         FAIR      67  62  84 CALM      30.20R
Perth Amboy      N/A     68 N/A N/A W5          N/A
Sussex         CLEAR     59  59 100 CALM      30.22S
Andover          N/A     60  59  96 CALM      30.22S
Trenton        CLEAR     66  63  90 CALM      30.21R
Millville      CLEAR     65  64  97 CALM      30.22R
Atlantic City  PTCLDY    64  61  90 CALM      30.22R
Wrightstown    CLEAR     64  62  93 CALM      30.19R
Toms River     PTCLDY    61  60  97 CALM      30.23R
Belmar         CLEAR     65  62  90 CALM      30.22R
$$

PAZ047>061-062-071-211200-
EASTERN PENNSYLVANIA

CITY           SKY/WX    TMP DP  RH WIND       PRES   REMARKS
Philadelphia   MOCLDY    69  66  90 CALM      30.21S
Allentown      CLEAR     62  59  90 CALM      30.22R FOG
Scranton       CLOUDY    63  60  90 E6        30.23R
$$

CTZ002-004>006-009-010-012-RIZ004-006-007-MAZ004-011-015-211200-
SOUTHERN NEW ENGLAND
 IN CT

CITY           SKY/WX    TMP DP  RH WIND       PRES   REMARKS
Bradley INTL   MOCLDY    61  59  93 W3        30.19R
Hartford       CLEAR     63  61  93 CALM      30.19R
Danbury        CLEAR     62  59  90 CALM      30.21R
Wtrbury/Oxford CLEAR     61  59  93 CALM      30.21R
Norwalk Harbor   N/A     66 N/A N/A NW3         N/A
Bridgeport     CLEAR     67  63  87 CALM      30.19R
Meriden        CLEAR     59  57  93 CALM      30.20R
New Haven      PTCLDY    63  62  97 CALM      30.19R
Chester        FAIR      68  61  77 CALM      30.20R
Groton         CLEAR     63  60  90 CALM      30.18R
Wilimantic     PTCLDY    58  58 100 CALM      30.20R

 IN RI

CITY           SKY/WX    TMP DP  RH WIND       PRES   REMARKS
Providence     PTCLDY    66  61  84 W3        30.17S
Block Island   CLEAR     68  66  93 W6        30.19S
Westerly       PTCLDY    61  59  93 MISG      30.19R
 IN MA

CITY           SKY/WX    TMP DP  RH WIND       PRES   REMARKS
Boston         PTSUNNY   71  59  65 VRB7      30.16R
Worcester      PTCLDY    65  56  72 W12       30.19S
Westfield      PTCLDY    58  58 100 CALM      30.19R
Provincetown   SUNNY     67  63  87 W6        30.17R
Nantucket      SUNNY     66  66 100 SW6       30.17R
$$

ANZ330-335-338-340-345-350-353-355-211200-
COASTAL MARINE OBSERVATIONS


STATION/POSITION TIME  SKY/WX   TEMP    WIND        PRES    VSBY  WAVE
                                AIR SEA DIR/SP/G                  HT/PER
                 (UTC)          (F)     (DEG/KT/KT) (MB)    (MI)  (FT/S)
NY HARB ENTRANCE 0950            74 76  260/  4/  6 1021.7          1/ 7
GREAT SOUTH BAY  1030            74 78  290/  2/  2   N/A
23 SSW MONTAUK P 0950            72 72              1022.1          2/ 8
15 E BARNEGAT LI 1030               77                N/A           2/ 8
HUDSON CANYON    0950            74 74  280/  6/  6 1021.8          2/ 8
KINGS POINT      1024            71 74  200/  4/  4 1022.2
EXECUTION ROCKS  NOT AVBL
WESTERN LI SOUND NOT AVBL
CENTRAL LI SOUND NOT AVBL
EASTERN LI SOUND NOT AVBL
ROBBINS REEF     1024                   260/  7/  7 1023.0
$$


>>>>>>>>>>>>>>>>>>>>>>>>>>>> KEY <<<<<<<<<<<<<<<<<<<<<<<<<<<
>                                                          <
>     SKY/WX - Sky Condition/Present Weather               <
>     TMP    - Temperature in Fahrenheit                   <
>     DP     - Dew Point in Fahrenheit                     <
>     RH     - Relative Humidity in Percent                <
>     WIND   - Direction (from) and Speed in MPH           <
>     PRES   - Mean Sea Level Pressure (inches of Hg)      <
>     WCI    - Wind Chill Index                            <
>     VSB    - VISIBILITY IN MILES                         <
>     HX     - HEAT INDEX                                  <
>     TC     - TEMPERATURE IN CELSIUS                      <
>     VRB    - VARIABLE WIND DIRECTION                     <
>                                                          <
>>>>>>>>>>>>>>>>>>>>>>>>>>>> KEY <<<<<<<<<<<<<<<<<<<<<<<<<<<




USA.gov is the U.S. government's official web portal to all federal, state and local government web resources and services.